タットル-ジャコビニ-クレサーク彗星

41P/Tuttle-Giacobini-Kresak (2006)

English version
Home page
Updated on September 17, 2006

---------------------------------------------------------------------

・ プロフィール

・ 写真集

・ 軌道要素

Perturbed ephemeris below is based on elements from MPC 48383. 

 Epoch = 2453880.50000 TT   T = 2453897.77517 TT
 Peri. =   62.19799         a =     3.0850459 AU
 Node  =  141.08977 J2000.0 e =     0.6603720
 Incl. =    9.22949         q =     1.0477681 AU

・ 星図

・ 光度変化

        m1 = 13.5 + 5 logΔ + 18.0 log r  [   ,-65]  (              〜2006年 4月 7日)
        m1 =  8.5 + 5 logΔ + 55   log r  [-65,  0]  (2006年 4月 7日〜2006年 6月11日)
        m1 =  9.0 + 5 logΔ + 30   log r  [  0,   ]  (2006年 6月11日〜              )

---------------------------------------------------------------------

軌道要素はMinor Planet & Comet Ephemeris Serviceで計算したものです。
星図は StellaNavigator Ver.2.0 for Windows (アストロアーツ 編著 / アスキー出版局刊) で作成したものです。
光度グラフはComet for Windowsで作成したものです。

---------------------------------------------------------------------

Copyright(C) Seiichi Yoshida (comet@aerith.net). All rights reserved.